This is the latest recevied weather packets stored in our database for station/object KJ6APE. If no packets are shown the sender has not sent any weather packets the latest 10 day(s).
| Time | Temp. | Humidity | Pressure | Rain* | Wind** | Luminosity | Snow |
|---|---|---|---|---|---|---|---|
| 1778110179 | 25° C | 49% | 1017.5 hPa | 0 mm | - | 674 W/m² | - |
| 1778109876 | 25.56° C | 48% | 1017.4 hPa | 0 mm | - | 692 W/m² | - |
| 1778109571 | 25° C | 48% | 1017.6 hPa | 0 mm | - | 709 W/m² | - |
| 1778109269 | 25.56° C | 47% | 1017.6 hPa | 0 mm | - | 726 W/m² | - |
| 1778108966 | 25.56° C | 47% | 1017.9 hPa | 0 mm | - | 737 W/m² | - |
| 1778108663 | 25° C | 48% | 1017.8 hPa | 0 mm | - | 752 W/m² | - |
| 1778108359 | 25.56° C | 46% | 1017.7 hPa | 0 mm | - | 769 W/m² | - |
| 1778108057 | 25.56° C | 45% | 1018.1 hPa | 0 mm | - | 783 W/m² | - |
| 1778107754 | 25.56° C | 47% | 1018.1 hPa | 0 mm | - | 790 W/m² | - |
| 1778107451 | 25.56° C | 47% | 1017.9 hPa | 0 mm | - | 809 W/m² | - |
| 1778107147 | 25° C | 47% | 1018 hPa | 0 mm | - | 821 W/m² | - |
| 1778106843 | 25° C | 48% | 1018.3 hPa | 0 mm | - | 837 W/m² | - |
| 1778106540 | 25° C | 46% | 1018.2 hPa | 0 mm | - | 850 W/m² | - |
| 1778106236 | 24.44° C | 47% | 1018.3 hPa | 0 mm | - | 862 W/m² | - |
| 1778105934 | 24.44° C | 48% | 1018.4 hPa | 0 mm | - | 874 W/m² | - |
| 1778105630 | 25° C | 47% | 1018.6 hPa | 0 mm | - | 886 W/m² | - |
| 1778105328 | 24.44° C | 50% | 1018.6 hPa | 0 mm | - | 895 W/m² | - |
| 1778105023 | 25° C | 49% | 1018.7 hPa | 0 mm | - | 907 W/m² | - |
| 1778104720 | 25° C | 47% | 1018.7 hPa | 0 mm | - | 918 W/m² | - |
| 1778104416 | 24.44° C | 46% | 1018.8 hPa | 0 mm | - | 926 W/m² | - |
| 1778104112 | 25° C | 46% | 1018.8 hPa | 0 mm | - | 940 W/m² | - |
| 1778103809 | 25° C | 47% | 1018.8 hPa | 0 mm | - | 948 W/m² | - |
| 1778103508 | 24.44° C | 47% | 1018.6 hPa | 0 mm | - | 956 W/m² | - |
| 1778103205 | 24.44° C | 47% | 1018.9 hPa | 0 mm | - | 963 W/m² | - |
| 1778102902 | 23.89° C | 46% | 1019.1 hPa | 0 mm | - | 971 W/m² | - |
* Rain latest hour (hover to see other rain measurements)
** Current wind speed in m/s (hover to see current wind gust speed)